QPF
0.00 0.00 0.00 0.00 0.00 0.00 0.00 0.00 0.00 0.00 0.00 0.00 0.00 0.00 0.00 0.00 0.00 0.00 0.00 0.00 0.00 0.00 0.00 0.00 0.00 0.00 0.00 0.00 0.00 0.00 0.00 0.00 0.00 0.00 0.00 0.00 0.00 0.00 0.00 0.00 0.00 0.00 0.00 0.01
0.00 0.00 0.00 0.00 0.00 0.00 0.00 0.00 0.00 0.00 0.00 0.00 0.00 0.00 0.00 0.00 0.00 0.00 0.00 0.00 0.00 0.00 0.00 0.00 0.00 0.00 0.00 0.00 0.00 0.01 0.01 0.01 0.01 0.00 0.01 0.00 0.00 0.00 0.00 0.00 0.00 0.00 0.00 0.00
0.00 0.00 0.00 0.00 0.00 0.00 0.00 0.00 0.00 0.00 0.00 0.00 0.00 0.00 0.00 0.00 0.00 0.00 0.00 0.00 0.00 0.00 0.00 0.00 0.00 0.00 0.00 0.00 0.00 0.00 0.01 0.00 0.00 0.00 0.00 0.00 0.00 0.00 0.00 0.00 0.00 0.00 0.00 0.00
0.00 0.00 0.00 0.00 0.00 0.00 0.00 0.00 0.00 0.00 0.00 0.00 0.00 0.00 0.00 0.00 0.00 0.00 0.00 0.00 0.00 0.00 0.00 0.00 0.00 0.00 0.00 0.00 0.00 0.00 0.00 0.00 0.00 0.00 0.00 0.00 0.00 0.00 0.00 0.00 0.00 0.00 0.00 0.00
0.00 0.00 0.00 0.00 0.00 0.00 0.00 0.00 0.00 0.00 0.00 0.00 0.00 0.00 0.00 0.00 0.00 0.00 0.00 0.00 0.00 0.00 0.00 0.00 0.00 0.00 0.00 0.00 0.00 0.00 0.00 0.00 0.00 0.00 0.00 0.00 0.00 0.00 0.00 0.00 0.00 0.00 0.00 0.00
0.00 0.00 0.00 0.00 0.00 0.00 0.00 0.00 0.00 0.00 0.00 0.00 0.00 0.00 0.00 0.00 0.00 0.00 0.00 0.00 0.00 0.00 0.00 0.00 0.00 0.00 0.00 0.00 0.00 0.00 0.00 0.00 0.00 0.00 0.00 0.00 0.00 0.00 0.00 0.00 0.00 0.00 0.00 0.00
0.00 0.00 0.00 0.00 0.00 0.00 0.00 0.00 0.00 0.00 0.00 0.00 0.00 0.00 0.00 0.00 0.00 0.00 0.00 0.00 0.00 0.00 0.00 0.00 0.00 0.00 0.00 0.00 0.00 0.00 0.00 0.00 0.00 0.00 0.00 0.00 0.00 0.00 0.00 0.00 0.00 0.00 0.00 0.00
0.00 0.01 0.00 0.00 0.00 0.00 0.00 0.00 0.00 0.00 0.00 0.00 0.00 0.00 0.00 0.00 0.00 0.00 0.00 0.00 0.00 0.00 0.00 0.00 0.00 0.00 0.00 0.00 0.00 0.00 0.00 0.00 0.00 0.00 0.00 0.00 0.00 0.00 0.00 0.00 0.00 0.00 0.00 0.00
0.00 0.00 0.00 0.00 0.00 0.00 0.00 0.00 0.00 0.00 0.00 0.00 0.00 0.00 0.00 0.00 0.00 0.00 0.00 0.00 0.00 0.00 0.00 0.00 0.00 0.00 0.00 0.00 0.00 0.00 0.00 0.00 0.00 0.00 0.00 0.00 0.00 0.00 0.00 0.00 0.00 0.00 0.00 0.00
0.00 0.00 0.00 0.00 0.00 0.00 0.00 0.00 0.00 0.00 0.00 0.00 0.00 0.00 0.00 0.00 0.00 0.00 0.00 0.00 0.00 0.00 0.00 0.00 0.00 0.00 0.00 0.00 0.00 0.00 0.00 0.00 0.00 0.00 0.00 0.00 0.00 0.00 0.00 0.00 0.00 0.00 0.00 0.00
0.00 0.00 0.00 0.00 0.00 0.00 0.00 0.00 0.00 0.00 0.00 0.00 0.00 0.00 0.00 0.00 0.00 0.00 0.00 0.00 0.00 0.00 0.00 0.00 0.00 0.00 0.00 0.00 0.00 0.00 0.00 0.00 0.00 0.00 0.00 0.00 0.00 0.00 0.00 0.00 0.00 0.00 0.00 0.00
0.00 0.00 0.00 0.00 0.00 0.00 0.00 0.00 0.00 0.00 0.00 0.00 0.00 0.00 0.00 0.00 0.00 0.00 0.00 0.00 0.00 0.00 0.00 0.00 0.00 0.00 0.00 0.00 0.00 0.00 0.00 0.00 0.00 0.00 0.00 0.00 0.00 0.00 0.00 0.00 0.00 0.00 0.00 0.00
0.00 0.00 0.00 0.00 0.00 0.00 0.00 0.00 0.00 0.00 0.00 0.00 0.00 0.00 0.00 0.00 0.00 0.00 0.00 0.00 0.00 0.00 0.00 0.00 0.00 0.00 0.00 0.00 0.00 0.00 0.00 0.00 0.00 0.00 0.00 0.00 0.00 0.00 0.00 0.00 0.00 0.00 0.00 0.00
0.00 0.00 0.00 0.00 0.00 0.00 0.00 0.00 0.00 0.00 0.00 0.00 0.00 0.00 0.00 0.00 0.00 0.00 0.00 0.00 0.00 0.00 0.00 0.00 0.00 0.00 0.00 0.00 0.00 0.00 0.00 0.00 0.00 0.00 0.00 0.00 0.00 0.00 0.00 0.00 0.00 0.00 0.00 0.00
0.00 0.00 0.00 0.00 0.00 0.00 0.00 0.00 0.00 0.00 0.00 0.00 0.00 0.00 0.00 0.00 0.00 0.00 0.00 0.00 0.00 0.00 0.00 0.00 0.00 0.00 0.00 0.00 0.00 0.00 0.00 0.00 0.00 0.00 0.00 0.00 0.00 0.00 0.00 0.00 0.00 0.00 0.00 0.00
0.00 0.00 0.00 0.00 0.00 0.00 0.00 0.00 0.00 0.00 0.00 0.00 0.00 0.00 0.00 0.00 0.00 0.00 0.00 0.00 0.00 0.00 0.00 0.00 0.00 0.00 0.00 0.00 0.00 0.00 0.00 0.00 0.00 0.00 0.00 0.00 0.00 0.00 0.00 0.00 0.00 0.00 0.00 0.00
0.00 0.00 0.00 0.00 0.00 0.00 0.00 0.00 0.00 0.00 0.00 0.00 0.00 0.00 0.00 0.00 0.00 0.00 0.00 0.00 0.00 0.00 0.00 0.00 0.00 0.00 0.00 0.00 0.00 0.00 0.00 0.00 0.00 0.00 0.00 0.00 0.00 0.00 0.00 0.00 0.00 0.00 0.00 0.00
0.00 0.00 0.00 0.00 0.00 0.00 0.00 0.00 0.00 0.00 0.00 0.00 0.00 0.00 0.00 0.00 0.00 0.00 0.00 0.00 0.00 0.00 0.00 0.00 0.00 0.00 0.00 0.00 0.00 0.00 0.00 0.00 0.00 0.00 0.00 0.00 0.00 0.00 0.00 0.00 0.00 0.00 0.00 0.00
0.00 0.00 0.00 0.00 0.00 0.00 0.00 0.00 0.00 0.00 0.00 0.00 0.00 0.00 0.00 0.00 0.00 0.00 0.00 0.00 0.00 0.00 0.00 0.00 0.00 0.00 0.00 0.00 0.00 0.00 0.00 0.00 0.00 0.01 0.00 0.00 0.00 0.00 0.00 0.00 0.00 0.00 0.00 0.00
0.00 0.00 0.00 0.00 0.00 0.00 0.00 0.00 0.00 0.00 0.00 0.00 0.00 0.00 0.00 0.00 0.00 0.00 0.00 0.00 0.00 0.00 0.00 0.00 0.00 0.00 0.00 0.00 0.00 0.00 0.00 0.01 0.01 0.00 0.00 0.00 0.00 0.00 0.00 0.00 0.00 0.00 0.00 0.00
0.00 0.00 0.00 0.00 0.00 0.00 0.00 0.00 0.00 0.00 0.00 0.00 0.00 0.00 0.00 0.00 0.00 0.00 0.00 0.00 0.00 0.00 0.00 0.00 0.00 0.00 0.00 0.00 0.00 0.01 0.01 0.01 0.01 0.01 0.01 0.01 0.01 0.01 0.01 0.01 0.00 0.00 0.00 0.00
0.00 0.00 0.00 0.00 0.00 0.00 0.00 0.00 0.00 0.00 0.00 0.00 0.00 0.00 0.00 0.00 0.00 0.00 0.00 0.00 0.00 0.00 0.00 0.00 0.00 0.00 0.00 0.00 0.01 0.01 0.01 0.01 0.01 0.01 0.01 0.01 0.01 0.01 0.01 0.01 0.01 0.00 0.00 0.00
0.00 0.00 0.00 0.00 0.00 0.00 0.00 0.00 0.00 0.00 0.00 0.00 0.00 0.00 0.00 0.00 0.00 0.00 0.00 0.00 0.00 0.00 0.00 0.00 0.00 0.01 0.01 0.01 0.01 0.01 0.01 0.01 0.01 0.01 0.01 0.01 0.01 0.01 0.01 0.01 0.01 0.00 0.00 0.00
0.00 0.00 0.00 0.00 0.00 0.00 0.00 0.00 0.00 0.00 0.00 0.00 0.00 0.00 0.00 0.00 0.00 0.00 0.00 0.00 0.00 0.00 0.00 0.00 0.01 0.01 0.01 0.01 0.01 0.01 0.01 0.01 0.01 0.01 0.01 0.01 0.01 0.01 0.01 0.01 0.00 0.00 0.00 0.00
0.00 0.00 0.00 0.00 0.00 0.00 0.00 0.00 0.00 0.00 0.00 0.00 0.00 0.00 0.00 0.00 0.00 0.00 0.00 0.00 0.00 0.00 0.00 0.00 0.01 0.01 0.01 0.01 0.01 0.01 0.01 0.01 0.01 0.01 0.01 0.01 0.01 0.01 0.01 0.00 0.00 0.00 0.00 0.00
0.00 0.00 0.00 0.00 0.00 0.00 0.00 0.00 0.00 0.00 0.00 0.00 0.00 0.00 0.00 0.00 0.00 0.00 0.00 0.00 0.00 0.00 0.01 0.01 0.01 0.01 0.01 0.01 0.01 0.01 0.01 0.01 0.01 0.01 0.01 0.01 0.01 0.01 0.01 0.00 0.00 0.00 0.00 0.00
0.00 0.00 0.00 0.00 0.00 0.00 0.00 0.00 0.00 0.00 0.00 0.00 0.00 0.00 0.00 0.00 0.00 0.00 0.00 0.00 0.00 0.00 0.01 0.01 0.01 0.01 0.01 0.01 0.01 0.01 0.01 0.01 0.01 0.01 0.01 0.01 0.01 0.01 0.00 0.00 0.00 0.00 0.00 0.00
MSLP
1022.93 1023.24 1023.47 1023.59 1023.54 1023.29 1022.82 1022.13 1021.26 1020.25 1019.18 1018.15 1017.22 1016.47 1015.92 1015.59 1015.44 1015.45 1015.54 1015.67 1015.80 1015.90 1015.98 1016.06 1016.17 1016.37 1016.66 1017.08 1017.62 1018.24 1018.91 1019.57 1020.18 1020.68 1021.06 1021.30 1021.41 1021.40 1021.31 1021.14 1020.93 1020.68 1020.41 1020.12
1022.96 1023.01 1022.97 1022.81 1022.52 1022.08 1021.49 1020.77 1019.95 1019.08 1018.20 1017.38 1016.66 1016.08 1015.65 1015.36 1015.18 1015.09 1015.04 1015.00 1014.96 1014.92 1014.89 1014.91 1015.01 1015.23 1015.58 1016.07 1016.69 1017.39 1018.13 1018.85 1019.52 1020.08 1020.51 1020.81 1020.98 1021.04 1021.01 1020.91 1020.76 1020.57 1020.34 1020.07
1022.90 1022.69 1022.37 1021.95 1021.43 1020.82 1020.15 1019.43 1018.68 1017.95 1017.27 1016.66 1016.15 1015.73 1015.41 1015.15 1014.95 1014.77 1014.60 1014.42 1014.24 1014.08 1013.97 1013.95 1014.05 1014.29 1014.69 1015.24 1015.92 1016.67 1017.45 1018.20 1018.89 1019.48 1019.94 1020.27 1020.49 1020.61 1020.65 1020.61 1020.52 1020.39 1020.20 1019.98
1022.71 1022.26 1021.70 1021.06 1020.35 1019.62 1018.89 1018.19 1017.54 1016.95 1016.45 1016.03 1015.69 1015.42 1015.18 1014.96 1014.73 1014.49 1014.22 1013.93 1013.65 1013.42 1013.26 1013.22 1013.33 1013.61 1014.05 1014.65 1015.36 1016.13 1016.91 1017.66 1018.34 1018.92 1019.39 1019.74 1019.99 1020.15 1020.24 1020.26 1020.23 1020.14 1020.00 1019.81
1022.36 1021.72 1020.98 1020.17 1019.35 1018.55 1017.80 1017.14 1016.58 1016.12 1015.77 1015.50 1015.30 1015.13 1014.95 1014.75 1014.51 1014.21 1013.88 1013.52 1013.19 1012.92 1012.76 1012.73 1012.88 1013.19 1013.67 1014.29 1015.00 1015.76 1016.52 1017.24 1017.89 1018.44 1018.89 1019.24 1019.50 1019.69 1019.82 1019.88 1019.90 1019.85 1019.74 1019.57
1021.85 1021.08 1020.22 1019.33 1018.45 1017.63 1016.91 1016.30 1015.83 1015.48 1015.24 1015.08 1014.97 1014.85 1014.71 1014.51 1014.25 1013.92 1013.55 1013.17 1012.83 1012.57 1012.43 1012.44 1012.62 1012.98 1013.48 1014.11 1014.81 1015.54 1016.25 1016.92 1017.51 1018.02 1018.44 1018.78 1019.04 1019.25 1019.41 1019.51 1019.55 1019.53 1019.43 1019.26
1021.18 1020.35 1019.46 1018.55 1017.69 1016.90 1016.23 1015.70 1015.30 1015.03 1014.86 1014.76 1014.68 1014.59 1014.45 1014.24 1013.95 1013.61 1013.23 1012.86 1012.54 1012.31 1012.22 1012.28 1012.51 1012.90 1013.42 1014.03 1014.70 1015.39 1016.04 1016.65 1017.18 1017.64 1018.03 1018.36 1018.63 1018.85 1019.02 1019.14 1019.20 1019.18 1019.09 1018.90
1020.39 1019.57 1018.71 1017.86 1017.06 1016.35 1015.75 1015.29 1014.96 1014.74 1014.60 1014.52 1014.44 1014.33 1014.17 1013.94 1013.64 1013.29 1012.92 1012.57 1012.29 1012.12 1012.08 1012.19 1012.46 1012.87 1013.38 1013.98 1014.61 1015.24 1015.83 1016.38 1016.86 1017.28 1017.65 1017.97 1018.24 1018.47 1018.66 1018.79 1018.85 1018.83 1018.72 1018.52
1019.55 1018.78 1018.00 1017.25 1016.56 1015.95 1015.45 1015.06 1014.78 1014.59 1014.46 1014.35 1014.24 1014.10 1013.90 1013.63 1013.32 1012.97 1012.62 1012.31 1012.07 1011.95 1011.96 1012.11 1012.40 1012.81 1013.31 1013.87 1014.45 1015.02 1015.56 1016.06 1016.50 1016.90 1017.26 1017.57 1017.86 1018.11 1018.30 1018.44 1018.50 1018.47 1018.34 1018.11
1018.72 1018.03 1017.37 1016.74 1016.18 1015.69 1015.29 1014.97 1014.72 1014.54 1014.39 1014.25 1014.10 1013.90 1013.66 1013.36 1013.03 1012.69 1012.35 1012.08 1011.88 1011.80 1011.84 1012.01 1012.29 1012.69 1013.15 1013.67 1014.19 1014.71 1015.20 1015.66 1016.09 1016.47 1016.83 1017.16 1017.47 1017.73 1017.94 1018.07 1018.13 1018.08 1017.93 1017.68
1017.94 1017.37 1016.83 1016.34 1015.91 1015.54 1015.23 1014.97 1014.76 1014.57 1014.40 1014.21 1014.00 1013.76 1013.47 1013.15 1012.81 1012.46 1012.15 1011.89 1011.72 1011.66 1011.70 1011.86 1012.13 1012.48 1012.90 1013.35 1013.83 1014.30 1014.75 1015.19 1015.60 1016.00 1016.37 1016.72 1017.04 1017.32 1017.53 1017.67 1017.71 1017.65 1017.49 1017.23
1017.28 1016.82 1016.41 1016.05 1015.75 1015.48 1015.25 1015.04 1014.84 1014.65 1014.45 1014.22 1013.97 1013.68 1013.36 1013.01 1012.66 1012.32 1012.02 1011.77 1011.60 1011.53 1011.56 1011.68 1011.90 1012.20 1012.55 1012.95 1013.37 1013.80 1014.23 1014.66 1015.08 1015.49 1015.88 1016.25 1016.58 1016.86 1017.08 1017.21 1017.25 1017.18 1017.01 1016.75
1016.75 1016.39 1016.10 1015.87 1015.67 1015.49 1015.32 1015.15 1014.96 1014.76 1014.53 1014.27 1013.98 1013.65 1013.31 1012.95 1012.59 1012.25 1011.95 1011.70 1011.52 1011.42 1011.40 1011.48 1011.63 1011.86 1012.15 1012.49 1012.87 1013.27 1013.68 1014.11 1014.54 1014.96 1015.37 1015.75 1016.09 1016.38 1016.58 1016.71 1016.73 1016.65 1016.48 1016.24
1016.36 1016.11 1015.92 1015.77 1015.66 1015.55 1015.42 1015.27 1015.09 1014.87 1014.62 1014.33 1014.01 1013.66 1013.30 1012.93 1012.57 1012.23 1011.92 1011.65 1011.44 1011.31 1011.24 1011.25 1011.34 1011.50 1011.73 1012.02 1012.36 1012.73 1013.14 1013.57 1014.01 1014.45 1014.87 1015.26 1015.59 1015.86 1016.06 1016.16 1016.17 1016.09 1015.93 1015.71
1016.11 1015.94 1015.83 1015.77 1015.71 1015.64 1015.53 1015.39 1015.20 1014.96 1014.68 1014.37 1014.02 1013.66 1013.29 1012.92 1012.55 1012.21 1011.88 1011.60 1011.36 1011.18 1011.06 1011.01 1011.03 1011.14 1011.31 1011.56 1011.87 1012.23 1012.64 1013.07 1013.52 1013.97 1014.39 1014.77 1015.09 1015.34 1015.51 1015.59 1015.59 1015.51 1015.37 1015.18
1015.98 1015.88 1015.83 1015.81 1015.78 1015.73 1015.62 1015.47 1015.25 1014.99 1014.68 1014.34 1013.98 1013.61 1013.23 1012.86 1012.49 1012.14 1011.81 1011.50 1011.23 1011.01 1010.84 1010.74 1010.72 1010.77 1010.90 1011.12 1011.41 1011.77 1012.18 1012.62 1013.07 1013.52 1013.93 1014.30 1014.60 1014.82 1014.97 1015.03 1015.02 1014.95 1014.82 1014.68
1015.92 1015.88 1015.87 1015.87 1015.85 1015.78 1015.66 1015.47 1015.22 1014.92 1014.59 1014.22 1013.84 1013.46 1013.08 1012.70 1012.33 1011.98 1011.64 1011.32 1011.03 1010.77 1010.57 1010.43 1010.37 1010.39 1010.50 1010.70 1010.98 1011.33 1011.74 1012.18 1012.64 1013.08 1013.48 1013.83 1014.11 1014.31 1014.44 1014.49 1014.47 1014.41 1014.32 1014.22
1015.91 1015.90 1015.91 1015.90 1015.86 1015.76 1015.59 1015.36 1015.07 1014.72 1014.35 1013.96 1013.56 1013.16 1012.78 1012.40 1012.04 1011.68 1011.34 1011.02 1010.71 1010.45 1010.23 1010.07 1009.99 1009.99 1010.08 1010.27 1010.55 1010.90 1011.31 1011.75 1012.20 1012.63 1013.02 1013.36 1013.62 1013.81 1013.92 1013.97 1013.97 1013.93 1013.88 1013.82
1015.88 1015.88 1015.87 1015.84 1015.75 1015.60 1015.38 1015.09 1014.74 1014.35 1013.94 1013.52 1013.10 1012.70 1012.31 1011.93 1011.58 1011.23 1010.90 1010.58 1010.28 1010.01 1009.79 1009.63 1009.54 1009.54 1009.63 1009.81 1010.09 1010.44 1010.84 1011.27 1011.72 1012.14 1012.53 1012.85 1013.11 1013.30 1013.42 1013.49 1013.51 1013.51 1013.50 1013.49
1015.78 1015.76 1015.71 1015.63 1015.48 1015.27 1014.98 1014.63 1014.23 1013.79 1013.34 1012.90 1012.47 1012.06 1011.67 1011.30 1010.96 1010.63 1010.31 1010.01 1009.72 1009.47 1009.26 1009.10 1009.02 1009.02 1009.11 1009.30 1009.57 1009.91 1010.31 1010.73 1011.17 1011.59 1011.97 1012.30 1012.57 1012.78 1012.93 1013.02 1013.09 1013.13 1013.17 1013.20
1015.54 1015.47 1015.37 1015.22 1015.01 1014.73 1014.38 1013.97 1013.52 1013.05 1012.58 1012.11 1011.68 1011.26 1010.88 1010.53 1010.20 1009.89 1009.60 1009.31 1009.05 1008.82 1008.63 1008.49 1008.42 1008.42 1008.52 1008.70 1008.97 1009.30 1009.69 1010.11 1010.55 1010.97 1011.36 1011.71 1012.00 1012.24 1012.43 1012.58 1012.69 1012.78 1012.86 1012.94
1015.11 1014.98 1014.82 1014.60 1014.33 1013.98 1013.58 1013.13 1012.65 1012.16 1011.67 1011.20 1010.76 1010.36 1009.99 1009.65 1009.34 1009.05 1008.78 1008.52 1008.29 1008.08 1007.91 1007.79 1007.73 1007.75 1007.84 1008.03 1008.29 1008.62 1009.00 1009.42 1009.86 1010.29 1010.70 1011.07 1011.41 1011.69 1011.93 1012.14 1012.31 1012.45 1012.57 1012.67
1014.45 1014.27 1014.04 1013.77 1013.44 1013.05 1012.62 1012.15 1011.65 1011.16 1010.67 1010.21 1009.78 1009.39 1009.04 1008.71 1008.42 1008.15 1007.89 1007.66 1007.44 1007.26 1007.11 1007.01 1006.97 1007.00 1007.10 1007.29 1007.55 1007.88 1008.26 1008.69 1009.13 1009.58 1010.02 1010.43 1010.81 1011.14 1011.44 1011.70 1011.92 1012.11 1012.26 1012.38
1013.58 1013.34 1013.06 1012.75 1012.39 1011.98 1011.54 1011.07 1010.59 1010.11 1009.64 1009.20 1008.79 1008.41 1008.06 1007.75 1007.46 1007.20 1006.96 1006.74 1006.54 1006.38 1006.25 1006.17 1006.15 1006.19 1006.31 1006.51 1006.78 1007.12 1007.51 1007.95 1008.41 1008.88 1009.35 1009.80 1010.22 1010.61 1010.96 1011.27 1011.53 1011.75 1011.92 1012.04
1012.51 1012.23 1011.93 1011.60 1011.23 1010.83 1010.41 1009.97 1009.52 1009.07 1008.63 1008.20 1007.81 1007.44 1007.10 1006.79 1006.50 1006.24 1006.00 1005.79 1005.61 1005.46 1005.35 1005.29 1005.30 1005.37 1005.51 1005.73 1006.02 1006.38 1006.79 1007.24 1007.73 1008.23 1008.73 1009.22 1009.68 1010.12 1010.51 1010.85 1011.14 1011.37 1011.54 1011.65
1011.29 1011.00 1010.69 1010.37 1010.03 1009.66 1009.28 1008.88 1008.47 1008.06 1007.65 1007.25 1006.87 1006.50 1006.16 1005.84 1005.55 1005.28 1005.03 1004.82 1004.65 1004.52 1004.43 1004.41 1004.45 1004.55 1004.73 1004.98 1005.31 1005.69 1006.13 1006.62 1007.13 1007.66 1008.19 1008.71 1009.20 1009.66 1010.07 1010.43 1010.72 1010.96 1011.11 1011.20
1009.99 1009.70 1009.42 1009.13 1008.82 1008.51 1008.18 1007.83 1007.47 1007.09 1006.72 1006.33 1005.96 1005.59 1005.24 1004.90 1004.59 1004.31 1004.06 1003.85 1003.69 1003.58 1003.53 1003.55 1003.63 1003.79 1004.02 1004.32 1004.68 1005.11 1005.58 1006.10 1006.64 1007.19 1007.74 1008.27 1008.77 1009.24 1009.65 1010.00 1010.29 1010.50 1010.63 1010.69
Thickness
5514 5517 5517 5521 5525 5519 5516 5517 5518 5531 5529 5550 5548 5544 5543 5541 5538 5535 5533 5530 5528 5525 5521 5517 5513 5509 5505 5500 5495 5491 5486 5482 5479 5475 5472 5469 5466 5463 5461 5458 5456 5453 5450 5447
5512 5519 5515 5518 5527 5523 5524 5524 5527 5531 5541 5555 5549 5542 5538 5537 5535 5534 5533 5532 5529 5525 5521 5516 5512 5507 5502 5497 5491 5486 5481 5477 5473 5469 5466 5463 5460 5456 5453 5450 5447 5444 5441 5437
5506 5508 5513 5526 5539 5532 5527 5528 5528 5530 5543 5547 5542 5541 5540 5538 5535 5533 5532 5530 5527 5524 5520 5516 5511 5506 5499 5494 5488 5481 5476 5472 5468 5464 5460 5457 5453 5449 5446 5442 5439 5435 5432 5428
5496 5502 5517 5549 5549 5539 5532 5534 5532 5536 5540 5538 5538 5537 5536 5534 5532 5531 5529 5527 5524 5520 5516 5512 5508 5502 5496 5489 5483 5477 5472 5467 5463 5458 5454 5450 5446 5442 5438 5434 5430 5426 5423 5419
5491 5490 5510 5539 5543 5536 5530 5537 5539 5534 5537 5534 5531 5529 5532 5535 5531 5529 5526 5523 5520 5516 5512 5507 5502 5496 5490 5484 5478 5472 5467 5463 5458 5453 5449 5444 5439 5435 5430 5425 5421 5417 5414 5410
5487 5491 5510 5546 5544 5537 5533 5535 5544 5535 5532 5529 5526 5522 5530 5532 5526 5523 5520 5516 5513 5509 5504 5500 5495 5489 5483 5477 5472 5468 5464 5459 5453 5448 5442 5438 5433 5427 5422 5417 5413 5409 5405 5401
5486 5487 5508 5529 5531 5531 5527 5539 5541 5533 5529 5524 5518 5520 5523 5521 5517 5516 5513 5510 5506 5502 5498 5494 5488 5482 5477 5472 5468 5465 5459 5453 5447 5442 5436 5431 5425 5419 5414 5409 5404 5399 5395 5391
5486 5486 5508 5530 5520 5519 5528 5530 5529 5525 5522 5517 5514 5514 5513 5512 5510 5508 5505 5502 5499 5494 5491 5486 5481 5475 5471 5467 5464 5457 5451 5446 5440 5434 5429 5424 5417 5411 5405 5400 5394 5389 5385 5381
5498 5516 5525 5519 5517 5520 5516 5515 5516 5514 5513 5509 5507 5507 5507 5505 5503 5501 5498 5495 5491 5486 5483 5478 5473 5469 5465 5462 5456 5449 5443 5437 5432 5427 5421 5415 5409 5403 5397 5391 5386 5382 5378 5374
5488 5506 5511 5510 5508 5508 5507 5506 5508 5506 5504 5501 5500 5501 5500 5498 5495 5493 5491 5487 5482 5477 5474 5471 5466 5462 5459 5454 5448 5441 5435 5430 5424 5418 5412 5407 5402 5397 5391 5385 5379 5375 5371 5367
5483 5498 5499 5507 5504 5503 5502 5500 5498 5497 5495 5494 5493 5493 5492 5491 5488 5486 5483 5479 5474 5470 5468 5465 5460 5455 5451 5445 5439 5433 5427 5422 5416 5411 5405 5398 5394 5389 5384 5379 5373 5368 5364 5359
5495 5500 5493 5498 5498 5493 5491 5492 5491 5488 5489 5487 5484 5484 5483 5482 5480 5476 5474 5470 5466 5463 5460 5457 5452 5448 5443 5438 5432 5426 5420 5414 5409 5403 5397 5391 5385 5380 5377 5372 5368 5364 5360 5354
5488 5487 5482 5485 5485 5483 5481 5481 5480 5478 5477 5477 5477 5474 5473 5472 5470 5467 5464 5461 5458 5456 5453 5449 5444 5440 5436 5430 5424 5419 5413 5408 5401 5396 5390 5384 5378 5372 5367 5363 5360 5356 5352 5347
5473 5469 5470 5474 5474 5473 5470 5469 5468 5467 5467 5466 5465 5464 5462 5460 5459 5456 5455 5453 5451 5447 5443 5440 5436 5433 5429 5423 5417 5411 5406 5401 5395 5388 5382 5376 5370 5364 5359 5354 5349 5344 5342 5338
5461 5457 5457 5460 5460 5459 5458 5456 5455 5456 5456 5455 5454 5452 5450 5449 5448 5448 5447 5444 5440 5437 5434 5430 5427 5425 5420 5415 5409 5404 5398 5392 5387 5380 5374 5368 5362 5356 5351 5345 5341 5336 5332 5328
5450 5446 5444 5444 5446 5447 5445 5444 5443 5445 5444 5443 5442 5441 5440 5438 5438 5437 5436 5432 5429 5428 5426 5422 5420 5417 5412 5406 5401 5395 5390 5386 5379 5372 5366 5360 5354 5348 5343 5337 5332 5328 5323 5319
5433 5434 5435 5434 5435 5434 5433 5432 5431 5432 5431 5431 5431 5430 5429 5427 5427 5427 5426 5423 5421 5419 5417 5414 5412 5408 5403 5398 5392 5387 5382 5377 5373 5365 5359 5353 5347 5341 5336 5330 5325 5320 5315 5311
5423 5423 5422 5420 5420 5420 5422 5422 5421 5420 5420 5421 5420 5419 5417 5417 5417 5418 5417 5414 5411 5409 5408 5406 5403 5399 5394 5389 5384 5379 5373 5368 5363 5357 5351 5345 5340 5334 5329 5323 5318 5312 5308 5303
5412 5411 5411 5410 5409 5408 5409 5410 5411 5411 5410 5410 5409 5409 5409 5409 5409 5408 5406 5402 5400 5400 5402 5399 5396 5390 5385 5381 5376 5370 5364 5359 5354 5349 5343 5339 5333 5327 5321 5316 5310 5305 5300 5295
5402 5402 5401 5401 5401 5399 5400 5402 5402 5402 5402 5400 5400 5400 5400 5401 5399 5397 5395 5394 5395 5394 5393 5389 5386 5381 5377 5372 5367 5361 5356 5351 5346 5341 5336 5330 5325 5319 5314 5308 5303 5297 5292 5287
5392 5393 5393 5394 5394 5394 5393 5393 5392 5393 5394 5392 5390 5391 5392 5392 5390 5387 5385 5387 5391 5386 5384 5382 5377 5373 5368 5364 5360 5353 5349 5344 5340 5334 5329 5323 5317 5312 5306 5301 5295 5290 5286 5281
5382 5383 5384 5384 5384 5387 5388 5386 5384 5384 5384 5384 5384 5382 5381 5382 5381 5379 5378 5379 5381 5379 5375 5372 5369 5366 5362 5357 5351 5346 5342 5337 5332 5327 5322 5316 5311 5305 5300 5294 5289 5285 5280 5275
5373 5373 5374 5375 5376 5377 5378 5378 5376 5376 5376 5377 5377 5376 5375 5375 5373 5371 5373 5374 5372 5371 5368 5364 5362 5360 5356 5350 5344 5339 5335 5330 5325 5321 5316 5311 5305 5300 5295 5289 5284 5279 5274 5269
5364 5365 5366 5366 5365 5364 5368 5372 5371 5370 5369 5369 5369 5368 5367 5366 5367 5366 5365 5366 5365 5363 5360 5358 5357 5354 5350 5343 5338 5333 5328 5324 5319 5315 5310 5305 5300 5295 5289 5284 5279 5275 5270 5265
5356 5356 5356 5356 5356 5359 5361 5362 5361 5361 5361 5363 5363 5362 5361 5360 5359 5361 5359 5358 5357 5356 5353 5352 5350 5347 5342 5337 5332 5327 5323 5319 5314 5309 5305 5300 5295 5290 5285 5280 5275 5270 5266 5261
5347 5348 5351 5351 5351 5352 5352 5351 5351 5353 5353 5354 5357 5357 5355 5354 5353 5352 5352 5351 5349 5348 5346 5344 5342 5339 5335 5331 5327 5322 5318 5314 5310 5306 5300 5296 5291 5286 5281 5276 5271 5267 5262 5258
5339 5340 5341 5342 5345 5344 5342 5341 5342 5345 5346 5346 5348 5350 5348 5347 5346 5346 5345 5344 5342 5341 5338 5336 5334 5331 5328 5325 5321 5317 5313 5308 5304 5300 5296 5292 5287 5282 5278 5273 5268 5263 5259 5255